[[{"header":{"parameterUnit":"m.s-1","parameterCategory":1,"la1":30.2991,"la2":30.254,"lo1":-89.0895,"lo2":-89.0444,"dy":0.0017,"dx":0.0017,"nx":28,"ny":28,"refTime":"2023-08-05T03:00:00:Z","depth":0,"parameterNumber":2,"parameterNumberName":"U-component_of_WINDS"},"data":[0,0,0,0,0,0,0,0,0,0,0,0,0,0,0,0,0,0,0,0,0,0,0,0,0,0,0,0,0,0,0,0,0,0,0,0,0,0,0,0,0,0,0,0,0,0,0,0,0,0,0,0,0,0,0,0,0,0,1.0818,1.0821,0,1.1041,1.1044,1.1046,1.1127,1.1126,1.1126,1.1125,1.1354,1.1361,1.1368,0,0,0,0,0,0,0,0,0,0,0,0,0,1.0463,1.0469,1.0818,1.0821,1.0824,1.1041,1.1044,1.1047,1.1127,1.1126,1.1125,1.1124,1.1352,1.136,1.1368,0,0,0,0,0,0,0,0,0,0,0,0,0,1.0644,1.0471,1.0817,1.089,1.0898,1.104,1.1044,1.1048,1.1127,1.1126,1.1125,1.1124,1.1349,1.1359,1.137,1.1456,0,0,1.1401,1.1405,0,0,0,0,0,0,0,0,1.0634,1.0657,1.0876,1.0885,1.0895,1.1055,1.1003,1.1185,1.1128,1.104,1.1125,1.1123,1.1256,1.1274,1.1318,1.1467,1.1477,1.1402,1.1408,1.1412,1.1415,0,0,0,0,0,0,0,1.0621,1.0648,1.0906,1.0879,1.0891,1.0912,1.0936,1.1038,1.1152,1.1048,1.1054,1.108,1.1261,1.1308,1.1324,1.148,1.1401,1.1411,1.1417,1.1421,1.1713,1.1715,0,0,0,0,0,0,1.0597,1.0637,1.0899,1.0913,1.0759,1.0919,1.0946,1.1005,1.1151,1.1172,1.108,1.1083,1.1291,1.1312,1.1332,1.1445,1.1412,1.1422,1.1428,1.1712,1.1714,1.1715,0,0,0,0,0,0,1.0589,1.0619,1.089,1.0777,1.0813,1.0926,1.0991,1.101,1.1057,1.1176,1.1196,1.1108,1.1291,1.1318,1.1425,1.1454,1.1427,1.1436,1.171,1.1712,1.1714,1.1669,0,0,0,0,0,0,1.0578,1.0616,1.0649,1.0777,1.0819,1.0978,1.0993,1.1015,1.1075,1.108,1.1207,1.1227,1.1292,1.1409,1.1435,1.1468,1.1444,1.1708,1.1711,1.1714,1.1669,1.167,1.1671,0,0,0,0,0,1.0565,1.0628,1.0651,1.0682,1.0863,1.098,1.1004,1.1078,1.1077,1.1112,1.1188,1.1223,1.1446,1.142,1.145,1.1485,1.1706,1.171,1.1713,1.1668,1.167,1.1671,0,0,0,0,0,0,1.05,1.0646,1.0673,1.0778,1.0866,1.0993,1.104,1.1077,1.1167,1.1167,1.1256,1.1284,1.1384,1.1446,1.1413,1.1578,1.1579,1.1588,1.1534,1.1537,1.1537,1.1521,1.1452,0,0,0,0,0,1.0498,1.058,1.0703,1.0785,1.0827,1.0926,1.0979,1.1029,1.1123,1.1161,1.1245,1.1336,1.1427,1.1485,1.1575,1.1678,1.1708,1.1717,1.1718,1.1719,1.1726,1.1787,1.1793,1.1727,1.1727,1.1727,0,0,1.0495,1.0584,1.0631,1.0774,1.0848,1.0932,1.0956,1.1044,1.1108,1.1174,1.1281,1.1346,1.1453,1.1559,1.1609,1.1613,1.1751,1.1723,1.1723,1.1731,1.1791,1.1798,1.1803,1.173,1.1729,1.1729,0,0,1.0532,1.0607,1.0684,1.0758,1.087,1.0935,1.0953,1.1075,1.1121,1.1229,1.1282,1.1359,1.1513,1.1588,1.1646,1.1713,1.1748,1.1739,1.1745,1.1803,1.1809,1.1814,1.1839,1.1847,1.1746,1.1746,1.1746,0,1.0514,1.0642,1.0719,1.0805,1.0867,1.0931,1.101,1.1078,1.1213,1.1255,1.1256,1.1453,1.1529,1.1654,1.167,1.1715,1.174,1.1726,1.1802,1.1807,1.1813,1.1838,1.1848,1.1745,1.1745,1.1745,1.1745,0,1.0615,1.0703,1.0752,1.0882,1.0949,1.1031,1.1121,1.118,1.1223,1.1288,1.1399,1.1493,1.1604,1.1637,1.168,1.1769,1.1768,1.1784,1.1787,1.1817,1.1842,1.1852,1.1742,1.1743,1.1743,1.1744,0,0,1.0618,1.0789,1.0806,1.0866,1.0995,1.1065,1.115,1.1258,1.1308,1.1399,1.1473,1.1603,1.162,1.1686,1.1738,1.1789,1.1837,1.18,1.1804,1.1805,1.1942,1.193,1.1939,1.1861,1.1863,1.1865,1.1934,0,1.0673,1.0828,1.09,1.1023,1.1107,1.1169,1.1244,1.1331,1.1394,1.1474,1.1545,1.1636,1.165,1.169,1.1743,1.182,1.1866,1.1816,1.1933,1.1936,1.1905,1.1952,1.194,1.2,1.1944,1.1946,1.1947,0,1.0758,1.0849,1.0981,1.1101,1.1138,1.1204,1.131,1.1386,1.1486,1.1529,1.1603,1.1653,1.1746,1.1741,1.1871,1.1835,1.1887,1.1932,1.1936,1.1951,1.1944,1.197,1.2021,1.203,1.1963,1.1961,1.196,0,1.0748,1.0904,1.1004,1.1053,1.1195,1.124,1.1301,1.14,1.1461,1.1554,1.1595,1.1697,1.1753,1.1831,1.1909,1.1898,1.2032,1.2033,1.2071,1.2069,1.2097,1.2094,1.2158,1.2128,1.2128,1.2127,1.2127,0,1.0803,1.0881,1.1002,1.1063,1.1153,1.1235,1.1322,1.1388,1.1476,1.1552,1.1612,1.1681,1.1779,1.1861,1.1922,1.2021,1.2046,1.2083,1.2099,1.2079,1.2074,1.2115,1.2114,1.213,1.2129,1.2129,1.2129,0,1.0808,1.0891,1.1004,1.1129,1.1163,1.1224,1.1331,1.1393,1.146,1.1555,1.1582,1.1686,1.1786,1.1871,1.2002,1.2044,1.2147,1.2164,1.2113,1.2121,1.2155,1.2151,1.2248,1.2266,1.2222,1.2222,1.2222,0,1.0838,1.09,1.1032,1.1087,1.1147,1.1235,1.1298,1.1382,1.1445,1.1565,1.1613,1.1717,1.1805,1.1962,1.205,1.2152,1.2173,1.22,1.2189,1.2167,1.2176,1.2172,1.2179,1.2201,1.2201,1.2201,1.2201,0,1.0882,1.0921,1.1009,1.1113,1.1186,1.1272,1.1359,1.14,1.15,1.1569,1.1672,1.174,1.1875,1.1978,1.2089,1.2153,1.2195,1.2204,1.2219,1.2199,1.2168,1.2187,1.2116,1.2202,1.2202,1.2202,1.2202,1.2202,1.0902,1.0961,1.1063,1.116,1.1235,1.1315,1.138,1.1455,1.1542,1.1659,1.1703,1.1809,1.1909,1.2062,1.2126,1.2211,1.2217,1.2237,1.2242,1.2247,1.2244,1.2153,1.2231,1.2231,1.2231,1.2231,1.2232,0,1.0952,1.1021,1.1109,1.123,1.1306,1.1338,1.1436,1.1498,1.159,1.168,1.1766,1.1885,1.1986,1.2082,1.2188,1.2237,1.2259,1.2263,1.2261,1.2275,1.2232,1.221,1.2243,1.2243,1.2243,1.2243,1.2243,1.2243,1.0986,1.1088,1.1139,1.1278,1.1347,1.1451,1.1505,1.158,1.1652,1.1783,1.1867,1.1928,1.2022,1.2135,1.2229,1.2255,1.2292,1.229,1.2321,1.228,1.2278,1.2276,1.2255,1.2297,1.2297,1.2357,1.2358,1.2358]},{"header":{"parameterUnit":"m.s-1","parameterCategory":1,"la1":30.2991,"la2":30.254,"lo1":-89.0895,"lo2":-89.0444,"dy":0.0017,"dx":0.0017,"nx":28,"ny":28,"refTime":"2023-08-05T03:00:00:Z","depth":0,"parameterNumber":3,"parameterNumberName":"V-component_of_WINDS"},"data":[0,0,0,0,0,0,0,0,0,0,0,0,0,0,0,0,0,0,0,0,0,0,0,0,0,0,0,0,0,0,0,0,0,0,0,0,0,0,0,0,0,0,0,0,0,0,0,0,0,0,0,0,0,0,0,0,0,0,5.9234,5.9235,0,5.9325,5.9326,5.9327,5.928,5.9278,5.9276,5.9273,5.9357,5.9361,5.9366,0,0,0,0,0,0,0,0,0,0,0,0,0,5.9009,5.9013,5.9233,5.9235,5.9236,5.9325,5.9326,5.9327,5.9281,5.9278,5.9275,5.9272,5.9356,5.9361,5.9366,0,0,0,0,0,0,0,0,0,0,0,0,0,5.9104,5.9015,5.9233,5.9224,5.9224,5.9324,5.9326,5.9327,5.9281,5.9278,5.9274,5.9271,5.9354,5.936,5.9367,5.9479,0,0,5.9387,5.939,0,0,0,0,0,0,0,0,5.9099,5.9112,5.9224,5.9225,5.9225,5.9288,5.9277,5.9378,5.9282,5.9259,5.9273,5.9269,5.9336,5.9344,5.9369,5.9483,5.9487,5.9388,5.9392,5.9395,5.9397,0,0,0,0,0,0,0,5.9092,5.9108,5.9269,5.9226,5.9226,5.9211,5.9221,5.9296,5.9316,5.9261,5.9258,5.927,5.9336,5.9362,5.937,5.9488,5.9388,5.9394,5.9398,5.94,5.9699,5.9703,0,0,0,0,0,0,5.9087,5.9103,5.9266,5.9272,5.9152,5.9218,5.9229,5.9271,5.9315,5.9319,5.9273,5.9267,5.9353,5.9363,5.9373,5.9508,5.9395,5.9401,5.9405,5.9695,5.97,5.9704,0,0,0,0,0,0,5.9083,5.9102,5.9263,5.9187,5.9206,5.9226,5.9274,5.9275,5.9302,5.9325,5.9327,5.9297,5.935,5.9364,5.9454,5.9511,5.9404,5.941,5.9691,5.9697,5.9702,5.978,0,0,0,0,0,0,5.9076,5.9101,5.9146,5.9188,5.921,5.9345,5.9277,5.9279,5.9314,5.9308,5.9348,5.9351,5.9349,5.9444,5.9461,5.9518,5.9415,5.9686,5.9693,5.97,5.9772,5.9787,5.9801,0,0,0,0,0,5.9069,5.9162,5.9149,5.9169,5.9268,5.9349,5.9361,5.9359,5.9319,5.9363,5.9378,5.935,5.9502,5.9454,5.9472,5.9532,5.9682,5.9691,5.97,5.9766,5.9784,5.98,0,0,0,0,0,0,5.9122,5.9167,5.9153,5.9264,5.9303,5.9341,5.9397,5.9379,5.9428,5.942,5.9412,5.9421,5.9516,5.9532,5.9478,5.9643,5.9585,5.9598,5.9629,5.9647,5.9661,5.9655,5.9421,0,0,0,0,0,5.9148,5.9213,5.9247,5.9341,5.9362,5.9376,5.9411,5.9407,5.9446,5.9461,5.9482,5.9519,5.9575,5.9612,5.9664,5.9774,5.9781,5.9824,5.9838,5.985,5.9861,5.9921,5.994,5.9734,5.9733,5.9733,0,0,5.9199,5.9232,5.9273,5.9353,5.9383,5.9448,5.939,5.9461,5.9508,5.9471,5.9559,5.9576,5.9615,5.9716,5.9762,5.9733,5.992,5.9861,5.987,5.9875,5.9932,5.9951,5.9969,5.974,5.9738,5.9738,0,0,5.9327,5.9359,5.9441,5.9473,5.9521,5.953,5.955,5.9591,5.9602,5.9691,5.9664,5.9718,5.9815,5.9845,5.9873,6.0013,5.9989,6.003,6.0104,6.0163,6.0179,6.0193,6.0244,6.0262,6.0041,6.0041,6.0041,0,5.9384,5.9485,5.9484,5.9559,5.9594,5.9567,5.9649,5.9679,5.974,5.9763,5.9731,5.9853,5.9878,5.9986,6.002,6.0043,6.0064,6.0026,6.0177,6.0191,6.0205,6.0253,6.0272,6.0046,6.0045,6.0045,6.0044,0,5.9553,5.9623,5.9683,5.9748,5.9789,5.9867,5.9876,5.9917,5.9909,5.9921,6.0011,6.004,6.0098,6.0123,6.0114,6.023,6.0211,6.0178,6.012,6.0229,6.0274,6.0293,6.0053,6.0051,6.005,6.0048,0,0,5.9717,5.9782,5.9804,5.9834,5.9885,5.9937,6.0012,6.0073,6.0109,6.0151,6.0214,6.0296,6.0267,6.0299,6.0292,6.0344,6.0454,6.0304,6.0305,6.0332,6.0583,6.0608,6.063,6.0438,6.0441,6.0444,6.058,0,5.9849,5.9986,5.9988,6.0112,6.0176,6.0151,6.0217,6.0253,6.0266,6.032,6.0331,6.0391,6.0347,6.0367,6.0416,6.043,6.0504,6.042,6.0493,6.0496,6.0486,6.0653,6.068,6.0807,6.0597,6.06,6.0602,0,6.0022,6.0075,6.0207,6.025,6.0277,6.0336,6.0393,6.0445,6.0485,6.049,6.0527,6.0513,6.0587,6.0527,6.0628,6.0571,6.0601,6.0612,6.0617,6.0624,6.0557,6.0665,6.0847,6.0867,6.063,6.0628,6.0626,0,6.013,6.0233,6.0326,6.0351,6.0404,6.0446,6.0469,6.0506,6.0543,6.0591,6.0614,6.0668,6.0698,6.0739,6.074,6.0696,6.0842,6.0781,6.0847,6.0848,6.088,6.0878,6.107,6.0898,6.0897,6.0897,6.0897,0,6.0278,6.0359,6.0376,6.0433,6.0523,6.0523,6.0611,6.063,6.0663,6.0721,6.0701,6.0755,6.0752,6.0806,6.0806,6.089,6.0903,6.0908,6.0908,6.0911,6.0911,6.0931,6.0922,6.0902,6.0901,6.09,6.0899,0,6.0413,6.0428,6.0528,6.057,6.0582,6.0647,6.0682,6.0735,6.0746,6.0819,6.0836,6.0853,6.0916,6.092,6.0991,6.0992,6.1094,6.1082,6.1082,6.108,6.1146,6.114,6.1358,6.1387,6.1195,6.1197,6.1199,0,6.0508,6.0571,6.0621,6.0661,6.0688,6.0751,6.0789,6.0791,6.0831,6.0883,6.0929,6.0991,6.104,6.1141,6.1157,6.1211,6.1202,6.1275,6.121,6.1212,6.1204,6.1201,6.1207,6.1287,6.1289,6.1291,6.1293,0,6.0673,6.0678,6.0736,6.0798,6.0846,6.0893,6.0937,6.0969,6.0976,6.1022,6.1088,6.1127,6.1202,6.1262,6.1316,6.1335,6.1315,6.1313,6.1331,6.1336,6.1333,6.1336,6.1117,6.1308,6.1306,6.1305,6.1304,6.1304,6.0792,6.0847,6.0892,6.0958,6.0992,6.1034,6.1087,6.1106,6.1163,6.1227,6.1223,6.1296,6.1333,6.1404,6.1428,6.1483,6.1458,6.1484,6.1491,6.1498,6.1505,6.1324,6.1492,6.1492,6.1491,6.1491,6.1491,0,6.0957,6.0986,6.1046,6.1111,6.1163,6.1142,6.119,6.1233,6.1299,6.1338,6.1388,6.1464,6.1523,6.1545,6.1602,6.1641,6.1633,6.1656,6.1654,6.1659,6.1524,6.1503,6.1662,6.1662,6.1662,6.1662,6.1662,6.1662,6.105,6.1143,6.1153,6.1262,6.1288,6.1363,6.1392,6.143,6.1461,6.1548,6.1599,6.1614,6.1645,6.1705,6.1757,6.1762,6.1783,6.1811,6.1811,6.1685,6.1668,6.1651,6.1632,6.1816,6.1816,6.1942,6.1943,6.1944]}]]